Regional Weather Roundup
Issued by NWS Albany, NY

Home | Current Version | Previous Version | Graphics & Text | Print | Product List | Glossary Off
Versions: 1 2 3 4 5 6 7 8 9 10 11 12 13 14 15 16 17 18 19 20 21 22 23 24 25 26 27 28 29 30 31 32 33 34 35 36 37 38 39 40 41 42 43 44 45 46 47 48 49 50

000
ASUS41 KALY 260310
RWRALY

NEW YORK STATE HOURLY WEATHER ROUNDUP
NATIONAL WEATHER SERVICE ALBANY NY
1100 PM EDT MON MAY 25 2015

NOTE: "FAIR" INDICATES FEW OR NO CLOUDS BELOW 12,000 FEET WITH NO
SIGNIFICANT WEATHER AND/OR NO OBSTRUCTIONS TO VISIBILITY.

NYZ032-033-038>043-046>054-057>066-NYZ062>081-260400-
EAST


CITY           SKY/WX    TMP DP  RH WIND       PRES   REMARKS
ALBANY         CLOUDY    77  56  48 S10       30.06S
GLENS FALLS    CLOUDY    71  61  70 SW6       30.03S
POUGHKEEPSIE   PTCLDY    78  56  46 S9        30.14R
NEWBURGH       CLEAR     73  59  60 W8        30.17R
MONTGOMERY     FAIR      72  58  61 SW8       30.15R
WHITE PLAINS   PTCLDY    68  57  68 S5        30.19R
ISLIP          MOCLDY    65  55  70 SW22G30   30.21R
NEW YORK CITY  PTCLDY    71  56  58 S14       30.19R
CENTRAL PARK   PTCLDY    74  56  53 VRB3      30.22R
$$

NYZ005>009-017-018-044>046-055-056-260400-
CENTRAL


CITY           SKY/WX    TMP DP  RH WIND       PRES   REMARKS
FULTON         CLOUDY    72  62  71 SW5       30.01S
SYRACUSE       CLOUDY    80  57  45 S9        30.00F
ROME           LGT RAIN  75  59  57 N3        30.04R
ELMIRA         CLOUDY    77  59  53 W8        30.07S
BINGHAMTON     MOCLDY    71  55  56 S10       30.12S
MONTICELLO     PTCLDY    70  57  64 S8        30.20S
$$

NYZ026>034-041>043-260400-
NORTH


CITY           SKY/WX    TMP DP  RH WIND       PRES   REMARKS
WATERTOWN      CLOUDY    67  64  90 S6        29.97F
FORT DRUM      NOT AVBL
MASSENA        LGT RAIN  63  61  93 E3        29.96F FOG
SARANAC LAKE   LGT RAIN  62  61  96 S5        30.04S
PLATTSBURGH    LGT RAIN  59  58  96 W5        30.00F
$$

NYZ001>004-010>016-019>021-260400-
WEST


CITY           SKY/WX    TMP DP  RH WIND       PRES   REMARKS
NIAGARA FALLS  PTCLDY    64  56  75 SW15      30.00R
BUFFALO        MOCLDY    66  62  87 SW8       30.02S
DUNKIRK        MOCLDY    68  64  87 S9        30.03F
JAMESTOWN      MOCLDY    70  57  64 S7        30.11S
WELLSVILLE     PTCLDY    73  57  57 SW9G17    30.13S
ROCHESTER      LGT RAIN  70  66  87 W9        30.03R
PENN YAN       CLOUDY    75  57  53 S6        30.04S
$$

             KEY
       WCI = WIND CHILL INDEX
       VSB = VISIBILITY
       HX  = HEAT INDEX
$$



USA.gov is the U.S. government's official web portal to all federal, state and local government web resources and services.